GAP915 RPVP-RPVB

Flight info

Callsign GAP915
Flight time 0h 51m
Altitude 33000
Route SAIRA1E SAIRA DCT KALAH DCT PALAY PALAY3P
Aircraft A320/M-SDE3FGHIRWY/LB1

Departure

Time 2026-04-24 14:15
Airport Puerto Princesa International Airport / PAF Antonio Bautista Air Base (RPVP)

Arrival

Time 2026-04-24 15:07
Airport Bacolod-Silay International Airport (RPVB)
Time Latitude Longitude Altitude Speed Heading
2026-04-24 13:57 9.74499 118.75157 76 ft 0 kts
2026-04-24 14:03 9.74473 118.75156 85 ft 4 kts
2026-04-24 14:03 9.74445 118.75156 85 ft 4 kts 354°
2026-04-24 14:03 9.74428 118.75159 83 ft 4 kts 338°
2026-04-24 14:03 9.74411 118.75174 85 ft 0 kts 272°
2026-04-24 14:08 9.74411 118.75168 86 ft 5 kts 270°
2026-04-24 14:08 9.74413 118.75104 84 ft 11 kts 272°
2026-04-24 14:09 9.74417 118.75022 82 ft 11 kts 272°
2026-04-24 14:09 9.74417 118.75019 82 ft 0 kts 272°
2026-04-24 14:10 9.74417 118.75018 82 ft 0 kts 272°
2026-04-24 14:10 9.74417 118.75016 82 ft 2 kts 272°
2026-04-24 14:10 9.74415 118.74948 82 ft 14 kts 270°
2026-04-24 14:11 9.74422 118.74853 82 ft 12 kts 266°
2026-04-24 14:11 9.74423 118.74811 82 ft 4 kts 273°
2026-04-24 14:11 9.74423 118.74764 81 ft 9 kts 273°
2026-04-24 14:12 9.74373 118.74709 83 ft 14 kts 180°
2026-04-24 14:12 9.74361 118.74707 83 ft 0 kts 189°
2026-04-24 14:13 9.74352 118.74706 82 ft 4 kts 186°
2026-04-24 14:13 9.74320 118.74703 83 ft 5 kts 185°
2026-04-24 14:13 9.74293 118.74705 80 ft 4 kts 163°
2026-04-24 14:13 9.74262 118.74759 80 ft 13 kts 90°
2026-04-24 14:14 9.74262 118.74776 80 ft 0 kts 94°
2026-04-24 14:14 9.74256 118.74839 82 ft 38 kts 96°
2026-04-24 14:14 9.74191 118.76319 83 ft 162 kts 96°
2026-04-24 14:15 9.74097 118.77511 535 ft 171 kts 93°
2026-04-24 14:15 9.74028 118.78719 1222 ft 173 kts 92°
2026-04-24 14:15 9.73978 118.79930 1964 ft 174 kts 92°
2026-04-24 14:15 9.73931 118.81198 2442 ft 187 kts 92°
2026-04-24 14:16 9.73878 118.82571 2827 ft 202 kts 92°
2026-04-24 14:16 9.73821 118.84030 3206 ft 218 kts 91°
2026-04-24 14:16 9.73758 118.85603 3747 ft 226 kts 92°
2026-04-24 14:17 9.73624 118.88780 5306 ft 226 kts 92°
2026-04-24 14:17 9.73558 118.90380 6047 ft 228 kts 92°
2026-04-24 14:17 9.73423 118.93621 7425 ft 233 kts 92°
2026-04-24 14:18 9.73352 118.95270 8101 ft 236 kts 92°
2026-04-24 14:18 9.73283 118.96920 8766 ft 239 kts 92°
2026-04-24 14:18 9.73211 118.98609 9442 ft 242 kts 92°
2026-04-24 14:18 9.73138 119.00323 10083 ft 245 kts 92°
2026-04-24 14:19 9.73065 119.02055 10676 ft 248 kts 92°
2026-04-24 14:19 9.72989 119.03815 11261 ft 252 kts 92°
2026-04-24 14:19 9.72913 119.05598 11851 ft 255 kts 92°
2026-04-24 14:19 9.72849 119.07400 12455 ft 258 kts 90°
2026-04-24 14:20 9.72865 119.09232 13054 ft 261 kts 88°
2026-04-24 14:20 9.72924 119.11062 13636 ft 265 kts 88°
2026-04-24 14:20 9.72998 119.12942 14158 ft 268 kts 88°
2026-04-24 14:20 9.73072 119.14835 14701 ft 270 kts 88°
2026-04-24 14:21 9.73142 119.16749 15238 ft 272 kts 88°
2026-04-24 14:21 9.73205 119.18669 15775 ft 274 kts 88°
2026-04-24 14:21 9.73265 119.20603 16301 ft 276 kts 88°
2026-04-24 14:21 9.73324 119.22555 16826 ft 278 kts 88°
2026-04-24 14:22 9.73381 119.24520 17352 ft 280 kts 88°
2026-04-24 14:22 9.73436 119.26496 17881 ft 281 kts 88°
2026-04-24 14:22 9.73545 119.30461 18804 ft 285 kts 88°
2026-04-24 14:23 9.73600 119.32474 19236 ft 287 kts 88°
2026-04-24 14:23 9.73656 119.34495 19671 ft 289 kts 88°
2026-04-24 14:23 9.73716 119.36538 20103 ft 291 kts 88°
2026-04-24 14:23 9.73778 119.38590 20531 ft 293 kts 88°
2026-04-24 14:24 9.73836 119.40661 20963 ft 295 kts 89°
2026-04-24 14:24 9.73895 119.42752 21375 ft 298 kts 88°
2026-04-24 14:24 9.73943 119.44856 21786 ft 300 kts 90°
2026-04-24 14:24 9.73951 119.46980 22204 ft 303 kts 90°
2026-04-24 14:25 9.73940 119.49103 22614 ft 306 kts 90°
2026-04-24 14:25 9.73924 119.51269 23023 ft 308 kts 91°
2026-04-24 14:25 9.73908 119.53453 23428 ft 311 kts 90°
2026-04-24 14:25 9.73895 119.55646 23768 ft 313 kts 90°
2026-04-24 14:26 9.73887 119.57868 24087 ft 316 kts 90°
2026-04-24 14:26 9.73880 119.60106 24404 ft 319 kts 90°
2026-04-24 14:26 9.73875 119.62369 24715 ft 322 kts 90°
2026-04-24 14:26 9.73871 119.64646 25028 ft 325 kts 90°
2026-04-24 14:27 9.73866 119.66914 25339 ft 327 kts 90°
2026-04-24 14:27 9.73859 119.69227 25658 ft 330 kts 90°
2026-04-24 14:27 9.73852 119.71563 25969 ft 332 kts 90°
2026-04-24 14:27 9.73845 119.73915 26273 ft 336 kts 90°
2026-04-24 14:28 9.73839 119.76292 26566 ft 339 kts 90°
2026-04-24 14:28 9.73833 119.78695 26856 ft 342 kts 90°
2026-04-24 14:28 9.73825 119.81109 27139 ft 345 kts 90°
2026-04-24 14:28 9.73815 119.83557 27424 ft 348 kts 90°
2026-04-24 14:29 9.73806 119.86023 27708 ft 351 kts 90°
2026-04-24 14:29 9.73798 119.88474 27987 ft 354 kts 90°
2026-04-24 14:29 9.73790 119.90983 28279 ft 357 kts 90°
2026-04-24 14:29 9.73782 119.93512 28574 ft 360 kts 90°
2026-04-24 14:30 9.73773 119.96054 28867 ft 362 kts 90°
2026-04-24 14:30 9.73763 119.98614 29157 ft 365 kts 90°
2026-04-24 14:30 9.73752 120.01193 29439 ft 367 kts 90°
2026-04-24 14:30 9.73741 120.03793 29707 ft 370 kts 90°
2026-04-24 14:31 9.73728 120.06412 29982 ft 373 kts 90°
2026-04-24 14:31 9.73716 120.09013 30215 ft 375 kts 90°
2026-04-24 14:31 9.73705 120.11666 30465 ft 377 kts 90°
2026-04-24 14:31 9.73696 120.14321 30727 ft 378 kts 90°
2026-04-24 14:32 9.73686 120.16996 30998 ft 380 kts 90°
2026-04-24 14:32 9.73675 120.19679 31264 ft 381 kts 90°
2026-04-24 14:32 9.73664 120.22370 31537 ft 383 kts 90°
2026-04-24 14:32 9.73654 120.25076 31806 ft 385 kts 90°
2026-04-24 14:33 9.73643 120.27794 32082 ft 386 kts 90°
2026-04-24 14:33 9.73631 120.30517 32355 ft 388 kts 90°
2026-04-24 14:33 9.73619 120.33226 32620 ft 390 kts 91°
2026-04-24 14:33 9.73605 120.35971 32855 ft 392 kts 91°
2026-04-24 14:34 9.73594 120.38764 32933 ft 400 kts 91°
2026-04-24 14:34 9.73566 120.44527 32951 ft 417 kts 91°
2026-04-24 14:35 9.73535 120.50524 32945 ft 433 kts 91°
2026-04-24 14:35 9.73505 120.56736 32949 ft 449 kts 91°
2026-04-24 14:36 9.73462 120.63156 32948 ft 463 kts 91°
2026-04-24 14:36 9.73907 120.69675 32947 ft 470 kts 81°
2026-04-24 14:37 9.74928 120.76219 32947 ft 470 kts 81°
2026-04-24 14:37 9.75926 120.82763 32951 ft 470 kts 82°
2026-04-24 14:38 9.76914 120.89312 32950 ft 470 kts 82°
2026-04-24 14:38 9.77916 120.95872 32762 ft 473 kts 81°
2026-04-24 14:38 9.78418 120.99166 32467 ft 474 kts 81°
2026-04-24 14:39 9.78917 121.02461 31349 ft 485 kts 81°
2026-04-24 14:39 9.79430 121.05873 29999 ft 494 kts 81°
2026-04-24 14:39 9.79951 121.09334 28468 ft 500 kts 81°
2026-04-24 14:39 9.80480 121.12831 27021 ft 502 kts 81°
2026-04-24 14:40 9.81009 121.16323 25623 ft 501 kts 81°
2026-04-24 14:40 9.81540 121.19806 24398 ft 498 kts 82°
2026-04-24 14:40 9.82063 121.23237 23660 ft 486 kts 82°
2026-04-24 14:40 9.82508 121.26163 22967 ft 477 kts 82°
2026-04-24 14:41 9.82884 121.28645 22320 ft 471 kts 82°
2026-04-24 14:41 9.83375 121.31894 21487 ft 464 kts 82°
2026-04-24 14:41 9.83860 121.35111 20686 ft 459 kts 82°
2026-04-24 14:41 9.84336 121.38285 19918 ft 453 kts 82°
2026-04-24 14:42 9.84806 121.41435 19175 ft 448 kts 82°
2026-04-24 14:42 9.85270 121.44543 18474 ft 444 kts 82°
2026-04-24 14:42 9.85724 121.47579 17721 ft 439 kts 82°
2026-04-24 14:42 9.86185 121.50661 16958 ft 435 kts 82°
2026-04-24 14:43 9.86633 121.53638 16288 ft 430 kts 82°
2026-04-24 14:43 9.87079 121.56589 16023 ft 415 kts 82°
2026-04-24 14:43 9.87491 121.59311 15855 ft 401 kts 82°
2026-04-24 14:43 9.87905 121.62050 15687 ft 387 kts 82°
2026-04-24 14:44 9.88302 121.64699 15487 ft 374 kts 82°
2026-04-24 14:44 9.88691 121.67309 14757 ft 378 kts 82°
2026-04-24 14:44 9.89086 121.69978 13909 ft 385 kts 82°
2026-04-24 14:44 9.89486 121.72674 13236 ft 385 kts 81°
2026-04-24 14:45 9.89880 121.75315 13012 ft 371 kts 81°
2026-04-24 14:45 9.90253 121.77813 12922 ft 356 kts 81°
2026-04-24 14:45 9.90623 121.80285 12946 ft 355 kts 81°
2026-04-24 14:45 9.90995 121.82764 12945 ft 355 kts 81°
2026-04-24 14:46 9.91367 121.85239 12946 ft 355 kts 81°
2026-04-24 14:46 9.91736 121.87709 12944 ft 354 kts 81°
2026-04-24 14:46 9.92103 121.90177 12946 ft 354 kts 81°
2026-04-24 14:46 9.92470 121.92648 12942 ft 354 kts 81°
2026-04-24 14:47 9.92837 121.95117 12942 ft 354 kts 81°
2026-04-24 14:47 9.93199 121.97555 12943 ft 354 kts 81°
2026-04-24 14:47 9.93565 122.00020 12943 ft 354 kts 81°
2026-04-24 14:47 9.93933 122.02498 12943 ft 355 kts 81°
2026-04-24 14:48 9.94301 122.04970 12942 ft 354 kts 81°
2026-04-24 14:48 9.94668 122.07439 12941 ft 354 kts 81°
2026-04-24 14:48 9.95034 122.09908 12943 ft 355 kts 81°
2026-04-24 14:48 9.95401 122.12387 12941 ft 355 kts 81°
2026-04-24 14:49 9.95762 122.14830 12937 ft 355 kts 81°
2026-04-24 14:49 9.96132 122.17333 12942 ft 355 kts 81°
2026-04-24 14:49 9.96495 122.19775 12936 ft 355 kts 81°
2026-04-24 14:49 9.96866 122.22255 12941 ft 355 kts 81°
2026-04-24 14:50 9.97230 122.24695 12939 ft 355 kts 81°
2026-04-24 14:50 9.97597 122.27180 12937 ft 355 kts 81°
2026-04-24 14:50 9.97961 122.29660 12941 ft 356 kts 81°
2026-04-24 14:50 9.98318 122.32104 12934 ft 343 kts 81°
2026-04-24 14:51 9.98658 122.34434 12938 ft 325 kts 81°
2026-04-24 14:51 9.99000 122.36646 12939 ft 309 kts 77°
2026-04-24 14:51 9.99636 122.38669 12937 ft 305 kts 66°
2026-04-24 14:51 10.00675 122.40539 12940 ft 305 kts 54°
2026-04-24 14:52 10.02074 122.42162 12940 ft 306 kts 43°
2026-04-24 14:52 10.03669 122.43594 12938 ft 307 kts 42°
2026-04-24 14:52 10.05266 122.45032 12939 ft 307 kts 42°
2026-04-24 14:52 10.06856 122.46473 12791 ft 306 kts 43°
2026-04-24 14:53 10.08437 122.47912 12532 ft 304 kts 43°
2026-04-24 14:53 10.10012 122.49348 11863 ft 313 kts 43°
2026-04-24 14:53 10.11657 122.50847 11128 ft 323 kts 43°
2026-04-24 14:53 10.13347 122.52387 10376 ft 331 kts 43°
2026-04-24 14:54 10.15085 122.53970 9547 ft 340 kts 43°
2026-04-24 14:54 10.16870 122.55596 8622 ft 348 kts 43°
2026-04-24 14:54 10.18689 122.57251 7672 ft 355 kts 43°
2026-04-24 14:54 10.20544 122.58939 6690 ft 362 kts 43°
2026-04-24 14:55 10.21788 122.60070 6047 ft 365 kts 43°
2026-04-24 14:55 10.24290 122.62342 4990 ft 361 kts 43°
2026-04-24 14:55 10.26171 122.64053 4228 ft 356 kts 43°
2026-04-24 14:55 10.27985 122.65702 3465 ft 353 kts 43°
2026-04-24 14:56 10.29784 122.67339 3097 ft 338 kts 43°
2026-04-24 14:56 10.31483 122.68884 2970 ft 318 kts 43°
2026-04-24 14:56 10.33071 122.70325 2966 ft 295 kts 43°
2026-04-24 14:56 10.34546 122.71666 2971 ft 274 kts 43°
2026-04-24 14:57 10.35915 122.72915 2978 ft 259 kts 43°
2026-04-24 14:57 10.37259 122.74143 2970 ft 260 kts 43°
2026-04-24 14:57 10.38607 122.75374 2984 ft 260 kts 43°
2026-04-24 14:57 10.39934 122.76586 2971 ft 260 kts 43°
2026-04-24 14:58 10.41281 122.77814 2974 ft 260 kts 43°
2026-04-24 14:58 10.42631 122.79046 2976 ft 260 kts 43°
2026-04-24 14:58 10.43928 122.80230 2977 ft 241 kts 43°
2026-04-24 14:58 10.45124 122.81321 2984 ft 222 kts 43°
2026-04-24 14:59 10.46195 122.82301 2979 ft 220 kts 44°
2026-04-24 14:59 10.46890 122.82940 2984 ft 220 kts 44°
2026-04-24 14:59 10.48023 122.83981 2981 ft 220 kts 44°
2026-04-24 14:59 10.49149 122.85008 2979 ft 219 kts 43°
2026-04-24 15:00 10.50331 122.85984 2975 ft 220 kts 34°
2026-04-24 15:00 10.51661 122.86764 2958 ft 221 kts 31°
2026-04-24 15:00 10.53031 122.87555 2498 ft 233 kts 31°
2026-04-24 15:00 10.54459 122.88387 2007 ft 237 kts 31°
2026-04-24 15:01 10.55871 122.89210 1799 ft 227 kts 31°
2026-04-24 15:01 10.57188 122.89976 1775 ft 209 kts 31°
2026-04-24 15:01 10.58386 122.90673 1793 ft 189 kts 32°
2026-04-24 15:01 10.59532 122.91341 1785 ft 190 kts 32°
2026-04-24 15:02 10.60663 122.91999 1788 ft 191 kts 32°
2026-04-24 15:02 10.61817 122.92671 1790 ft 190 kts 32°
2026-04-24 15:02 10.62918 122.93309 1799 ft 170 kts 32°
2026-04-24 15:02 10.63864 122.93856 1776 ft 144 kts 32°
2026-04-24 15:03 10.64725 122.94355 1812 ft 140 kts 32°
2026-04-24 15:03 10.65568 122.94847 1809 ft 139 kts 33°
2026-04-24 15:03 10.66410 122.95340 1797 ft 140 kts 33°
2026-04-24 15:03 10.67248 122.95831 1800 ft 139 kts 33°
2026-04-24 15:04 10.68082 122.96318 1799 ft 140 kts 33°
2026-04-24 15:04 10.68924 122.96810 1793 ft 140 kts 33°
2026-04-24 15:04 10.69768 122.97303 1731 ft 140 kts 33°
2026-04-24 15:04 10.70604 122.97792 1542 ft 139 kts 32°
2026-04-24 15:05 10.71441 122.98282 1366 ft 139 kts 32°
2026-04-24 15:05 10.72278 122.98770 1168 ft 138 kts 32°
2026-04-24 15:05 10.73113 122.99257 983 ft 138 kts 31°
2026-04-24 15:05 10.73945 122.99740 797 ft 138 kts 32°
2026-04-24 15:06 10.74773 123.00222 616 ft 138 kts 31°
2026-04-24 15:06 10.75593 123.00699 410 ft 137 kts 32°
2026-04-24 15:06 10.76412 123.01176 233 ft 136 kts 31°
2026-04-24 15:06 10.77210 123.01645 83 ft 117 kts 31°
2026-04-24 15:07 10.77504 123.01817 85 ft 0 kts 29°
2026-04-24 15:07 10.77503 123.01817 85 ft 0 kts 28°
2026-04-24 15:07 10.77519 123.01826 87 ft 6 kts 30°
2026-04-24 15:08 10.77563 123.01852 83 ft 0 kts 30°
2026-04-24 15:08 10.77574 123.01859 83 ft 6 kts 30°
2026-04-24 15:08 10.77637 123.01884 85 ft 13 kts
2026-04-24 15:09 10.77690 123.01855 84 ft 6 kts 300°
2026-04-24 15:09 10.77723 123.01787 85 ft 13 kts 297°
2026-04-24 15:09 10.77737 123.01765 84 ft 7 kts 304°
2026-04-24 15:09 10.77747 123.01718 84 ft 6 kts 253°
2026-04-24 15:10 10.77745 123.01714 83 ft 0 kts 245°
2026-04-24 15:11 10.77738 123.01705 84 ft 5 kts 226°
2026-04-24 15:11 10.77710 123.01682 85 ft 5 kts 213°
2026-04-24 15:11 10.77684 123.01665 84 ft 4 kts 214°
2026-04-24 15:11 10.77664 123.01652 85 ft 3 kts 210°
2026-04-24 15:12 10.77649 123.01643 84 ft 2 kts 210°
2026-04-24 15:12 10.77628 123.01631 83 ft 4 kts 210°
2026-04-24 15:12 10.77612 123.01616 87 ft 2 kts 238°
2026-04-24 15:13 10.77611 123.01606 86 ft 1 kts 269°
2026-04-24 15:13 10.77614 123.01597 83 ft 4 kts 292°
2026-04-24 15:13 10.77626 123.01572 84 ft 1 kts 298°
2026-04-24 15:13 10.77629 123.01566 83 ft 1 kts 298°
2026-04-24 15:14 10.77630 123.01564 84 ft 0 kts 297°
2026-04-24 15:14 10.77632 123.01561 83 ft 3 kts 298°
2026-04-24 15:14 10.77636 123.01553 82 ft 0 kts 301°
2026-04-24 15:14 10.77637 123.01552 82 ft 1 kts 296°
2026-04-24 15:15 10.77637 123.01551 82 ft 0 kts 298°